Regional Weather Roundup
Issued by NWS

Home | Current Version | Previous Version | Text Only | Print | Product List | Glossary Off
Versions: 1 2 3 4 5 6 7 8 9 10 11 12 13 14 15 16 17 18 19 20 21 22 23 24 25 26 27 28 29 30 31 32 33 34 35 36 37 38 39 40 41 42 43 44 45 46 47 48 49 50

000
ASUS43 KOAX 212010
RWRNE

WEATHER ROUNDUP FOR NEBRASKA
NATIONAL WEATHER SERVICE OMAHA NE
200 PM CST SUN JAN 21 2018

NOTES: SATELLITE DATA IS BEING USED TO AUGMENT CLOUD COVER ABOVE
       12000 FEET.
       "FAIR" INDICATES FEW OR NO CLOUDS BELOW 12,000 FEET WITH NO
       SIGNIFICANT WEATHER AND/OR OBSTRUCTIONS TO VISIBILITY.


NEZ001>004-019>022-054>056-212100-
NEBRASKA PANHANDLE

CITY           SKY/WX    TMP DP  RH WIND       PRES   REMARKS
SCOTTSBLUFF    LGT SNOW  29  26  89 N21       29.90S VSB 1   WCI  16
ALLIANCE       FOG       28  27  96 N20G28    29.86S VSB 1/2 WCI  15
CHADRON        SNOW      29  27  92 N13       29.96F VSB 1/2 WCI  19
GORDON         LGT SNOW  31  28  90 N16G23    29.88F WCI  19
KIMBALL        LGT SNOW  26  24  91 N21G28    29.83F VSB 1   WCI  12
SIDNEY         SNOW      28  25  88 N21G29    29.80F VSB 1/2 WCI  15
$$

NEZ057>060-069>072-079>082-212100-
SOUTHWEST NEBRASKA

CITY           SKY/WX    TMP DP  RH WIND       PRES   REMARKS
NORTH PLATTE   CLOUDY    34  28  79 N23G36    29.74S WCI  22
IMPERIAL       LGT SNOW  31  30  96 N23G35    29.72F FOG     WCI  18
LEXINGTON      LGT RAIN  34  31  90 N21G26    29.69F WCI  22
MCCOOK         LGT SNOW  32  32 100 N21G26    29.68F VSB 1   WCI  20
OGALLALA       CLOUDY    33  30  88 N20       29.79R FOG     WCI  22
$$

NEZ005>010-023>029-035>040-094-212100-
NORTH CENTRAL NEBRASKA

CITY           SKY/WX    TMP DP  RH WIND       PRES   REMARKS
VALENTINE      LGT SNOW  32  30  92 N15       29.88S VSB 3/4 WCI  22
AINSWORTH      CLOUDY    32  32  98 N20G30    29.84F WCI  21
BROKEN BOW     CLOUDY    35  29  78 N24G35    29.73F WCI  23
O`NEILL        CLOUDY    37  33  87 N22       29.83S WCI  26
ORD            CLOUDY    37  29  72 N20G30    29.75F WCI  27
THEDFORD       CLOUDY    33  31  93 N22G29    29.80F WCI  21
$$

NEZ041-046>049-061>064-073>077-083>087-212100-
SOUTH CENTRAL NEBRASKA

CITY           SKY/WX    TMP DP  RH WIND       PRES   REMARKS
GRAND ISLAND   LGT RAIN  33  33 100 NE22      29.69F VSB 1   WCI  21
AURORA         CLOUDY    34  34 100 NE20G26   29.69F FOG     WCI  23
HASTINGS       CLOUDY    34  33  96 NE21G31   29.67F FOG     WCI  22
HEBRON         FOG       41  40  98 NE17      29.64F VSB 1/4
HOLDREGE       LGT RAIN  33  33 100 N22       29.65F WCI  20
KEARNEY        MIX PCPN  33  32  96 N21       29.68S FOG     WCI  21
YORK           MOSUNNY   37  37 100 NE16      29.70F FOG     WCI  28
$$

NEZ011>018-030>034-042>045-212100-
NORTHEAST NEBRASKA

CITY           SKY/WX    TMP DP  RH WIND       PRES   REMARKS
NORFOLK        CLOUDY    49  31  49 NE13G24   29.74F
ALBION         CLOUDY    37  30  75 NE17G32   29.77R WCI  28
BLAIR          FOG       38  37  95 N13       29.71F VSB 1/4 WCI  30
COLUMBUS       CLOUDY    35  34  96 N16       29.75R FOG     WCI  25
FREMONT        CLOUDY    38  37  97 N9        29.74S FOG     WCI  31
TEKAMAH        LGT SNOW  37  35  92 N18       29.74F FOG     WCI  27
WAYNE          CLOUDY    38  30  74 N16       29.78F WCI  29
$$

NEZ050>053-065>068-078-088>093-212100-
SOUTHEAST NEBRASKA

CITY           SKY/WX    TMP DP  RH WIND       PRES   REMARKS
LINCOLN        CLOUDY    39  38  96 NE15      29.71F FOG     WCI  31
OMAHA EPPLEY   LGT RAIN  40  39  97 N12       29.72F FOG     WCI  33
BEATRICE       DRZL/FOG  43  43 100 NE12      29.66F VSB 1/4
FALLS CITY     CLOUDY    56  47  71 S7        29.67F
NEBRASKA CITY  FOG       42  42 100 N7        29.69F VSB<1/4
PLATTSMOUTH    FOG       40  40 100 N7        29.71S VSB 1/4
$$

NEZ044-045-051>053-067-212100-
OMAHA AREA

CITY           SKY/WX    TMP DP  RH WIND       PRES   REMARKS
OMAHA EPPLEY   LGT RAIN  40  39  97 N12       29.72F FOG     WCI  33
BLAIR          FOG       38  37  95 N13       29.71F VSB 1/4 WCI  30
FREMONT        CLOUDY    38  37  97 N9        29.74S FOG     WCI  31
MILLARD        CLOUDY    42  40  93 CALM      29.72F FOG
OFFUTT AFB     CLOUDY    41  41  99 NE7       29.71F FOG
PLATTSMOUTH    FOG       40  40 100 N7        29.71S VSB 1/4
WAHOO          CLOUDY    38  37  94 NE14      29.72S FOG     WCI  30
$$




USA.gov is the U.S. government's official web portal to all federal, state and local government web resources and services.